GW0507 Weather Reports


time (UTC)temp
F
wind
direction
speed
knots
gust
knots
rain 1hr
in
rain 24hr
in
rain mn
in
humidity
%
barometer
mb
20260505091543 44 260 5.2 13.9 0.00 0.31 0.00 81 1008.6
20260505090034 43 223 1.7 10.4 0.00 0.31 0.00 81 1008.4
20260505084535 43 229 2.6 7.8 0.00 0.32 0.00 80 1008.2
20260505083035 45 225 4.3 13.0 0.00 0.32 0.00 79 1008.0
20260505081537 45 265 7.8 19.1 0.00 0.32 0.00 80 1007.8
20260505080038 45 244 7.8 17.4 0.00 0.32 0.00 79 1007.5
20260505074537 46 227 8.7 15.6 0.00 0.33 0.00 79 1007.4
20260505073036 46 221 6.1 19.1 0.00 0.33 0.00 79 1007.3
20260505071541 46 233 10.4 19.1 0.00 0.33 0.00 79 1006.8
20260505070038 46 238 13.0 26.9 0.00 0.33 0.00 78 1006.6
20260505064536 46 260 8.7 22.6 0.00 0.37 0.00 78 1006.4
20260505063044 46 221 7.8 18.2 0.00 0.37 0.00 79 1006.2
20260505061603 46 238 8.7 17.4 0.00 0.37 0.00 78 1005.9
20260505060044 47 238 12.2 24.3 0.00 0.37 0.00 78 1005.6
20260505054544 47 226 9.6 22.6 0.00 0.37 0.00 78 1005.4
20260505053046 46 271 10.4 21.7 0.00 0.37 0.00 78 1005.1
20260505051605 47 269 9.6 20.0 0.00 0.37 0.00 78 1004.9
20260505041540 47 269 7.8 15.6 0.00 0.38 0.00 79 1004.3
20260505040037 47 253 7.0 13.0 0.00 0.38 0.00 79 1004.3
20260505034541 47 284 6.1 14.8 0.00 0.38 0.00 79 1004.3
20260505033034 47 280 9.6 17.4 0.00 0.38 0.00 80 1004.0
20260505031541 46 223 10.4 25.2 0.00 0.38 0.00 79 1003.6
20260505030049 47 229 12.2 19.1 0.00 0.38 0.00 77 1003.4
20260505024539 48 266 8.7 17.4 0.00 0.39 0.38 75 1003.3
20260505023036 48 232 8.7 20.9 0.00 0.39 0.38 73 1003.2
20260505021534 49 244 10.4 17.4 0.00 0.39 0.38 71 1003.2
20260505020035 48 240 6.1 13.0 0.00 0.39 0.38 70 1003.1
20260505014532 49 217 7.8 22.6 0.00 0.51 0.38 69 1002.6
20260505013032 49 227 13.0 24.3 0.00 0.51 0.38 67 1002.4
20260505011537 48 197 12.2 18.2 0.00 0.51 0.38 68 1002.3
20260505010037 48 218 7.0 14.8 0.00 0.51 0.38 67 1002.1
20260505004535 47 217 7.8 15.6 0.00 0.75 0.38 66 1002.2
20260505003035 47 182 6.1 13.0 0.00 0.75 0.38 68 1002.0
20260505001535 47 216 7.0 14.8 0.00 0.75 0.38 67 1002.1
20260505000038 47 215 5.2 14.8 0.00 0.75 0.38 66 1001.7
20260504234536 47 203 5.2 11.3 0.00 0.88 0.38 65 1001.5
20260504233038 49 212 2.6 14.8 0.00 0.88 0.38 61 1001.1
20260504231541 48 221 4.3 11.3 0.00 0.88 0.38 61 1000.8
20260504230046 49 277 5.2 14.8 0.00 0.88 0.38 59 1000.6
20260504224533 49 178 6.1 10.4 0.00 1.11 0.38 60 1000.5
20260504223034 50 259 4.3 24.3 0.00 1.11 0.38 61 1000.4
20260504221535 50 231 6.1 17.4 0.00 1.11 0.38 62 1000.1
20260504220035 50 223 9.6 15.6 0.00 1.11 0.38 62 999.9
20260504214534 50 222 6.1 13.9 0.00 1.19 0.38 63 999.7
20260504213035 50 226 12.2 30.4 0.00 1.19 0.38 62 999.5
20260504211538 50 212 13.9 30.4 0.00 1.19 0.38 62 999.4
20260504210040 51 329 13.9 31.3 0.00 1.19 0.38 63 999.2
20260504204538 51 287 11.3 28.7 0.00 1.25 0.38 62 998.9
20260504203051 51 254 15.6 34.8 0.00 1.25 0.38 63 998.9
20260504201542 51 259 15.6 29.5 0.00 1.25 0.38 63 998.7
20260504200042 51 234 17.4 33.9 0.00 1.25 0.38 63 998.2
20260504194541 51 261 18.2 40.8 0.00 1.33 0.38 66 997.8
20260504193041 51 261 16.5 33.9 0.00 1.33 0.38 68 997.5
20260504191535 51 248 12.2 26.9 0.00 1.33 0.38 69 997.3
20260504190050 51 238 15.6 34.8 0.00 1.33 0.38 70 997.0
20260504184536 50 284 13.0 29.5 0.00 1.33 0.38 72 996.6
20260504183041 50 284 11.3 29.5 0.00 1.33 0.38 74 996.4
20260504181543 48 292 15.6 35.6 0.00 1.33 0.38 76 996.0
20260504180041 49 269 14.8 37.4 0.00 1.33 0.38 76 995.8
20260504174536 48 309 14.8 30.4 0.00 1.33 0.38 79 995.5
20260504173035 47 288 16.5 33.0 0.00 1.33 0.38 80 995.6
20260504171543 47 271 15.6 32.2 0.00 1.33 0.38 81 995.0